Time,TemperatureF,DewpointF,PressureIn,WindDirection,WindDirectionDegrees,WindSpeedMPH,WindSpeedGustMPH,Humidity,HourlyPrecipIn,Conditions,Clouds,dailyrainin,SoftwareType,DateUTC
2013-06-13 00:02:00,69.0,-99.9,-100.00,NNW,345,19.0,24.0,-999,0.00,,,-99.99,,2013-06-13 05:02:00,
2013-06-13 00:12:00,69.0,69.0,-100.00,NNW,340,18.0,27.0,99,0.00,,,-99.99,,2013-06-13 05:12:00,
2013-06-13 00:24:00,69.0,69.0,-100.00,NNW,340,20.0,26.0,99,0.00,,,-99.99,,2013-06-13 05:24:00,
2013-06-13 00:33:00,69.0,69.0,-100.00,NNW,340,20.0,26.0,99,0.00,,,-99.99,,2013-06-13 05:33:00,
2013-06-13 00:43:00,69.0,-99.9,-100.00,North,350,19.0,26.0,-999,0.00,,,-99.99,,2013-06-13 05:43:00,
2013-06-13 00:53:00,69.0,-99.9,-100.00,North,350,17.0,27.0,-999,0.00,,,-99.99,,2013-06-13 05:53:00,
2013-06-13 01:02:00,69.0,69.0,-100.00,North,355,14.0,22.0,99,0.00,,,-99.99,,2013-06-13 06:02:00,
2013-06-13 01:11:00,69.0,69.0,-100.00,North,355,14.0,22.0,99,0.00,,,-99.99,,2013-06-13 06:11:00,
2013-06-13 01:22:00,68.0,68.0,-100.00,North,350,12.0,19.0,99,0.00,,,-99.99,,2013-06-13 06:22:00,
2013-06-13 01:33:00,68.0,-99.9,-100.00,North,350,13.0,22.0,-999,0.00,,,-99.99,,2013-06-13 06:33:00,
2013-06-13 01:44:00,68.0,-99.9,-100.00,NNW,340,14.0,19.0,-999,0.00,,,-99.99,,2013-06-13 06:44:00,
2013-06-13 01:53:00,68.0,-99.9,-100.00,NNW,340,14.0,19.0,-999,0.00,,,-99.99,,2013-06-13 06:53:00,
2013-06-13 02:01:00,68.0,68.0,-100.00,NNW,345,13.0,17.0,99,0.00,,,-99.99,,2013-06-13 07:01:00,
2013-06-13 02:12:00,68.0,-99.9,-100.00,NNW,345,15.0,22.0,-999,0.00,,,-99.99,,2013-06-13 07:12:00,
2013-06-13 02:22:00,68.0,-99.9,-100.00,NNW,345,15.0,22.0,-999,0.00,,,-99.99,,2013-06-13 07:22:00,
2013-06-13 02:33:00,68.0,-99.9,-100.00,NNW,340,14.0,19.0,-999,0.00,,,-99.99,,2013-06-13 07:33:00,
2013-06-13 02:42:00,67.0,67.0,-100.00,NNW,340,14.0,22.0,99,0.00,,,-99.99,,2013-06-13 07:42:00,
2013-06-13 02:52:00,67.0,67.0,-100.00,NNW,340,14.0,22.0,99,0.00,,,-99.99,,2013-06-13 07:52:00,
2013-06-13 03:02:00,67.0,-99.9,-100.00,NNW,345,14.0,19.0,-999,0.00,,,-99.99,,2013-06-13 08:02:00,
2013-06-13 03:11:00,66.0,66.0,-100.00,NNW,335,14.0,20.0,99,0.00,,,-99.99,,2013-06-13 08:11:00,
2013-06-13 03:22:00,66.0,66.0,-100.00,NNW,335,14.0,20.0,99,0.00,,,-99.99,,2013-06-13 08:22:00,
2013-06-13 03:32:00,66.0,66.0,-100.00,NNW,330,15.0,19.0,99,0.00,,,-99.99,,2013-06-13 08:32:00,
2013-06-13 03:43:00,66.0,66.0,-100.00,NW,325,12.0,19.0,99,0.00,,,-99.99,,2013-06-13 08:43:00,
2013-06-13 03:52:00,66.0,66.0,-100.00,NW,325,12.0,19.0,99,0.00,,,-99.99,,2013-06-13 08:52:00,
2013-06-13 04:02:00,66.0,66.0,-100.00,NW,325,12.0,19.0,99,0.00,,,-99.99,,2013-06-13 09:02:00,
2013-06-13 04:12:00,66.0,66.0,-100.00,NW,325,12.0,19.0,99,0.00,,,-99.99,,2013-06-13 09:12:00,
2013-06-13 04:22:00,65.0,-99.9,-100.00,NNW,345,14.0,-999.0,-999,0.00,,,-99.99,,2013-06-13 09:22:00,
2013-06-13 04:32:00,65.0,65.0,-100.00,NNW,340,12.0,17.0,99,0.00,,,-99.99,,2013-06-13 09:32:00,
2013-06-13 04:42:00,64.0,64.0,-100.00,NNW,335,11.0,14.0,99,0.00,,,-99.99,,2013-06-13 09:42:00,
2013-06-13 04:52:00,64.0,64.0,-100.00,NNW,345,11.0,14.0,99,0.00,,,-99.99,,2013-06-13 09:52:00,
2013-06-13 05:02:00,64.0,-99.9,-100.00,NNW,340,11.0,15.0,-999,0.00,,,-99.99,,2013-06-13 10:02:00,
2013-06-13 05:11:00,64.0,64.0,-100.00,NNW,345,9.0,12.0,99,0.00,,,-99.99,,2013-06-13 10:11:00,
2013-06-13 05:22:00,64.0,-99.9,-100.00,NW,320,11.0,13.0,-999,0.00,,,-99.99,,2013-06-13 10:22:00,
2013-06-13 05:33:00,64.0,-99.9,-100.00,NW,320,11.0,13.0,-999,0.00,,,-99.99,,2013-06-13 10:33:00,
2013-06-13 05:43:00,63.0,-99.9,-100.00,NW,320,8.0,12.0,-999,0.00,,,-99.99,,2013-06-13 10:43:00,
2013-06-13 05:53:00,63.0,-99.9,-100.00,NW,325,7.0,9.0,-999,0.00,,,-99.99,,2013-06-13 10:53:00,
2013-06-13 06:02:00,63.0,63.0,-100.00,NW,320,8.0,11.0,99,0.00,,,-99.99,,2013-06-13 11:02:00,
2013-06-13 06:11:00,63.0,63.0,-100.00,NW,320,9.0,12.0,99,0.00,,,-99.99,,2013-06-13 11:11:00,
2013-06-13 06:24:00,63.0,-99.9,-100.00,NW,325,7.0,12.0,-999,0.00,,,-99.99,,2013-06-13 11:24:00,
2013-06-13 06:32:00,63.0,-99.9,-100.00,NW,325,7.0,12.0,-999,0.00,,,-99.99,,2013-06-13 11:32:00,
2013-06-13 06:42:00,63.0,63.0,-100.00,NW,315,7.0,10.0,99,0.00,,,-99.99,,2013-06-13 11:42:00,
2013-06-13 06:52:00,64.0,64.0,-100.00,NW,315,9.0,12.0,99,0.00,,,-99.99,,2013-06-13 11:52:00,
2013-06-13 07:02:00,64.0,-99.9,-100.00,NW,320,7.0,12.0,-999,0.00,,,-99.99,,2013-06-13 12:02:00,
2013-06-13 07:12:00,64.0,-99.9,-100.00,NW,320,7.0,12.0,-999,0.00,,,-99.99,,2013-06-13 12:12:00,
2013-06-13 07:23:00,64.0,-99.9,-100.00,NW,320,7.0,12.0,-999,0.00,,,-99.99,,2013-06-13 12:23:00,
2013-06-13 07:35:00,64.0,-99.9,-100.00,NW,320,7.0,12.0,-999,0.00,,,-99.99,,2013-06-13 12:35:00,
2013-06-13 07:43:00,66.0,-99.9,-100.00,NNW,330,10.0,13.0,-999,0.00,,,-99.99,,2013-06-13 12:43:00,
2013-06-13 07:52:00,66.0,66.0,-100.00,NNW,330,9.0,13.0,99,0.00,,,-99.99,,2013-06-13 12:52:00,
2013-06-13 08:01:00,67.0,67.0,-100.00,NNW,335,12.0,15.0,99,0.00,,,-99.99,,2013-06-13 13:01:00,
2013-06-13 08:12:00,67.0,-99.9,-100.00,NW,325,11.0,16.0,-999,0.00,,,-99.99,,2013-06-13 13:12:00,
2013-06-13 08:22:00,67.0,-99.9,-100.00,NW,325,9.0,12.0,-999,0.00,,,-99.99,,2013-06-13 13:22:00,
2013-06-13 08:33:00,67.0,-99.9,-100.00,NW,325,9.0,12.0,-999,0.00,,,-99.99,,2013-06-13 13:33:00,
2013-06-13 08:43:00,68.0,68.0,-100.00,NW,325,10.0,14.0,99,0.00,,,-99.99,,2013-06-13 13:43:00,
2013-06-13 08:53:00,69.0,69.0,-100.00,NW,325,9.0,13.0,99,0.00,,,-99.99,,2013-06-13 13:53:00,
2013-06-13 09:02:00,69.0,69.0,-100.00,North,350,10.0,13.0,99,0.00,,,-99.99,,2013-06-13 14:02:00,
2013-06-13 09:11:00,70.0,70.0,-100.00,NNW,340,8.0,11.0,99,0.00,,,-99.99,,2013-06-13 14:11:00,
2013-06-13 09:22:00,70.0,69.0,-100.00,NW,315,7.0,11.0,97,0.00,,,-99.99,,2013-06-13 14:22:00,
2013-06-13 09:33:00,70.0,69.0,-100.00,NW,315,7.0,11.0,97,0.00,,,-99.99,,2013-06-13 14:33:00,
2013-06-13 09:43:00,70.0,69.0,-100.00,NW,315,7.0,11.0,94,0.00,,,-99.99,,2013-06-13 14:43:00,
2013-06-13 09:53:00,71.0,69.0,-100.00,North,350,7.0,11.0,92,0.00,,,-99.99,,2013-06-13 14:53:00,
2013-06-13 10:02:00,72.0,69.0,-100.00,NW,310,9.0,11.0,92,0.00,,,-99.99,,2013-06-13 15:02:00,
2013-06-13 10:12:00,72.0,70.0,-100.00,North,10,7.0,11.0,92,0.00,,,-99.99,,2013-06-13 15:12:00,
2013-06-13 10:22:00,73.0,69.0,-100.00,NW,315,7.0,11.0,89,0.00,,,-99.99,,2013-06-13 15:22:00,
2013-06-13 10:33:00,73.0,69.0,-100.00,NW,315,7.0,11.0,89,0.00,,,-99.99,,2013-06-13 15:33:00,
2013-06-13 10:53:00,73.0,68.0,-100.00,NW,310,8.0,11.0,83,0.00,,,-99.99,,2013-06-13 15:53:00,
2013-06-13 11:12:00,74.0,68.0,-100.00,NW,315,7.0,11.0,80,0.00,,,-99.99,,2013-06-13 16:12:00,
2013-06-13 11:22:00,74.0,68.0,-100.00,NW,310,7.0,11.0,81,0.00,,,-99.99,,2013-06-13 16:22:00,
2013-06-13 11:43:00,76.0,67.0,-100.00,NW,320,7.0,13.0,75,0.00,,,-99.99,,2013-06-13 16:43:00,
2013-06-13 11:53:00,76.0,68.0,-100.00,NW,325,10.0,12.0,76,0.00,,,-99.99,,2013-06-13 16:53:00,
2013-06-13 12:02:00,76.0,67.0,-100.00,NNE,15,9.0,12.0,74,0.00,,,-99.99,,2013-06-13 17:02:00,
2013-06-13 12:11:00,76.0,68.0,-100.00,North,5,7.0,12.0,75,0.00,,,-99.99,,2013-06-13 17:11:00,
2013-06-13 12:24:00,77.0,69.0,-100.00,NNW,340,6.0,12.0,76,0.00,,,-99.99,,2013-06-13 17:24:00,
2013-06-13 12:43:00,77.0,69.0,-100.00,NNW,340,6.0,12.0,76,0.00,,,-99.99,,2013-06-13 17:43:00,
2013-06-13 12:53:00,77.0,69.0,-100.00,NNW,340,6.0,12.0,76,0.00,,,-99.99,,2013-06-13 17:53:00,
2013-06-13 13:02:00,77.0,69.0,-100.00,NNW,340,6.0,12.0,76,0.00,,,-99.99,,2013-06-13 18:02:00,